Weather Roundup
Issued by NWS Chicago, IL

Home | Current Version | Previous Version | Text Only | Print | Product List | Glossary On
Versions: 1 2 3 4 5 6 7 8 9 10 11 12 13 14 15 16 17 18 19 20 21 22 23 24 25 26 27 28 29 30 31 32 33 34 35 36 37 38 39 40 41 42 43 44 45 46 47 48 49 50
000
NZUS59 KLOT 231408
HRRLOT

CHICAGO AREA WEATHER ROUNDUP
NATIONAL WEATHER SERVICE CHICAGO/ROMEOVILLE IL
900 AM CDT SAT JUL 23 2016

NOTE: "FAIR" INDICATES FEW OR NO CLOUDS BELOW 12,000 FEET WITH NO
SIGNIFICANT WEATHER AND/OR OBSTRUCTIONS TO VISIBILITY.

* THESE STATIONS ARE NOT UNDER NWS QUALITY CONTROL. THEY ALSO MAY NOT
  REPORT WEATHER SUCH AS PRECIPITATION OR FOG.

ILZ005-006-012>014-019>023-231500-
NORTHEAST ILLINOIS

CITY           SKY/WX    TMP DP  RH WIND       PRES   REMARKS
OHARE          PTSUNNY   84  76  76 VRB3      29.98F HX  93
MIDWAY         PTSUNNY   85  76  74 SW3       29.98S HX  94
AURORA         MOSUNNY   84  78  82 SE6       29.99F HX  95
LANSING*       SUNNY     84  75  75 CALM      30.00S HX  91
JOLIET*        MOSUNNY   84  78  83 CALM      29.99F HX  95
WAUKEGAN       PTSUNNY   84  77  79 CALM      29.98S HX  94
DUPAGE AIRPORT MOSUNNY   84  76  76 S3        29.98F HX  93
WHEELING       PTSUNNY   85  75  72 CALM      29.99F HX  93
MORRIS*        SUNNY     82  78  88 CALM      29.98F HX  90
LEWIS AIRPORT* SUNNY     82  75  78 CALM      29.99F HX  88
NORTHERLY ISL    N/A     80  73  79 E5          N/A  HX  84
$$

WIZ051-052-058>065-066-070>072-231500-
SOUTHEAST WISCONSIN

CITY           SKY/WX    TMP DP  RH WIND       PRES   REMARKS
MILWAUKEE      MOSUNNY   88  74  63 CALM      29.98S HX  96
KENOSHA*       MOSUNNY   84  78  82 CALM      29.99S HX  95
RACINE*        MOSUNNY   86  76  71 NE6       30.00S HX  96
BURLINGTON     MOSUNNY   82  77  84 CALM      29.98F HX  91
WAUKESHA       MOSUNNY   77  75  94 CALM      30.00F
$$

INZ001>003-010>013-019-020-231500-
NORTHWEST INDIANA

CITY           SKY/WX    TMP DP  RH WIND       PRES   REMARKS
GARY*          NOT AVBL
MICHIGAN CITY* NOT AVBL
RENSSELAER*    NOT AVBL
VALPARAISO     PTSUNNY   84  76  76 CALM      30.00F HX  93
$$

LMZ740>746-231500-
SOUTHERN LAKE MICHIGAN

STATION/POSITION TIME  SKY/WX   TEMP WIND        PRES    VSBY
                                AIR  DIR/SP/G
                 (UTC)          (F)  (DEG/KT/KT) (MB)    (MI)
HARRISON CRIB    1300            82  310/  2/  3   N/A
BURNHAM HARBOR   1400            81   80/  5       N/A
CALUMET HARBOR   1300            82  200/  2/  3 1015.0F
BURNS HARBOR     1301            78  250/  5/  7 1016.3S
MICHIGAN CITY    1300            77  220/  7/  8   N/A
$$

ABBREVIATIONS USED IN REMARKS
   TC - TEMPERATURE IN CELSIUS
  WCI - WIND CHILL INDEX
   HX - HEAT INDEX
  VSB - VISIBILITY
$$




USA.gov is the U.S. government's official web portal to all federal, state and local government web resources and services.